ANZ605 NZWN-NZQN

Flight info

Callsign ANZ605
Flight time 1h 10m
Altitude 32000
Route SABDA Y622 MESIX H159 CH Y266 ELRUV
Aircraft A320/M-SDE3FGHIRWY/LB1

Departure

Time 2026-05-06 02:11
Airport Wellington International Airport (NZWN)

Arrival

Time 2026-05-06 03:21
Airport Queenstown Airport (NZQN)
Time Latitude Longitude Altitude Speed Heading
2026-05-06 01:28 -41.32968 174.81017 27 ft 0 kts 156°
2026-05-06 01:51 -41.32958 174.81012 26 ft 4 kts 161°
2026-05-06 01:52 -41.32933 174.81006 26 ft 4 kts 193°
2026-05-06 01:52 -41.32916 174.81020 26 ft 3 kts 266°
2026-05-06 01:52 -41.32916 174.81025 26 ft 0 kts 272°
2026-05-06 01:58 -41.32916 174.81017 26 ft 2 kts 273°
2026-05-06 01:58 -41.32916 174.81009 26 ft 0 kts 272°
2026-05-06 02:01 -41.32916 174.81007 26 ft 1 kts 272°
2026-05-06 02:01 -41.32915 174.80992 31 ft 0 kts 272°
2026-05-06 02:01 -41.32915 174.80991 26 ft 0 kts 272°
2026-05-06 02:01 -41.32915 174.80980 26 ft 2 kts 272°
2026-05-06 02:02 -41.32914 174.80939 26 ft 7 kts 272°
2026-05-06 02:02 -41.32950 174.80882 26 ft 12 kts 193°
2026-05-06 02:02 -41.33039 174.80873 31 ft 11 kts 182°
2026-05-06 02:02 -41.33100 174.80827 26 ft 11 kts 243°
2026-05-06 02:03 -41.33172 174.80786 26 ft 13 kts 182°
2026-05-06 02:03 -41.33267 174.80782 26 ft 15 kts 183°
2026-05-06 02:03 -41.33375 174.80773 26 ft 16 kts 182°
2026-05-06 02:03 -41.33463 174.80768 26 ft 0 kts 183°
2026-05-06 02:08 -41.33465 174.80768 26 ft 1 kts 183°
2026-05-06 02:08 -41.33485 174.80766 26 ft 5 kts 183°
2026-05-06 02:08 -41.33515 174.80762 26 ft 0 kts 193°
2026-05-06 02:08 -41.33518 174.80761 26 ft 2 kts 193°
2026-05-06 02:09 -41.33540 174.80748 26 ft 5 kts 213°
2026-05-06 02:09 -41.33567 174.80704 26 ft 7 kts 244°
2026-05-06 02:09 -41.33553 174.80642 26 ft 8 kts 324°
2026-05-06 02:09 -41.33527 174.80635 26 ft 0 kts 359°
2026-05-06 02:10 -41.33501 174.80635 26 ft 20 kts
2026-05-06 02:10 -41.33111 174.80664 27 ft 88 kts
2026-05-06 02:11 -41.32335 174.80733 195 ft 122 kts
2026-05-06 02:11 -41.31476 174.80805 716 ft 125 kts
2026-05-06 02:11 -41.30610 174.80860 1257 ft 124 kts 356°
2026-05-06 02:11 -41.29753 174.80913 1706 ft 124 kts 355°
2026-05-06 02:12 -41.28830 174.80961 1878 ft 143 kts 353°
2026-05-06 02:12 -41.27774 174.81012 2018 ft 160 kts 353°
2026-05-06 02:12 -41.26639 174.80778 2153 ft 173 kts 341°
2026-05-06 02:12 -41.25437 174.80355 2615 ft 181 kts 340°
2026-05-06 02:13 -41.24208 174.79909 3178 ft 184 kts 340°
2026-05-06 02:13 -41.22977 174.79469 3852 ft 184 kts 340°
2026-05-06 02:13 -41.21706 174.79013 4269 ft 195 kts 341°
2026-05-06 02:13 -41.20375 174.78540 4961 ft 200 kts 341°
2026-05-06 02:14 -41.19017 174.78065 5702 ft 203 kts 340°
2026-05-06 02:14 -41.17634 174.77583 6312 ft 208 kts 340°
2026-05-06 02:14 -41.16223 174.77068 6995 ft 211 kts 334°
2026-05-06 02:14 -41.15061 174.75948 7651 ft 210 kts 304°
2026-05-06 02:15 -41.14556 174.74138 8304 ft 215 kts 274°
2026-05-06 02:15 -41.14910 174.72193 8947 ft 228 kts 241°
2026-05-06 02:15 -41.16041 174.70681 9572 ft 239 kts 225°
2026-05-06 02:15 -41.17395 174.69355 10239 ft 247 kts 212°
2026-05-06 02:16 -41.19085 174.68709 10764 ft 265 kts 187°
2026-05-06 02:16 -41.21018 174.68918 10991 ft 291 kts 175°
2026-05-06 02:16 -41.23102 174.69287 11196 ft 314 kts 175°
2026-05-06 02:16 -41.25350 174.69681 11384 ft 337 kts 176°
2026-05-06 02:17 -41.27749 174.70094 11505 ft 359 kts 177°
2026-05-06 02:17 -41.30300 174.70525 11656 ft 379 kts 175°
2026-05-06 02:17 -41.32961 174.70980 12042 ft 389 kts 176°
2026-05-06 02:17 -41.35664 174.71375 12627 ft 391 kts 181°
2026-05-06 02:18 -41.38368 174.71040 13211 ft 390 kts 193°
2026-05-06 02:18 -41.41031 174.70427 13790 ft 394 kts 193°
2026-05-06 02:18 -41.43740 174.69790 14347 ft 397 kts 193°
2026-05-06 02:18 -41.46465 174.69150 14878 ft 400 kts 194°
2026-05-06 02:19 -41.49180 174.68318 15366 ft 399 kts 202°
2026-05-06 02:19 -41.51733 174.66878 15841 ft 398 kts 211°
2026-05-06 02:19 -41.54192 174.65141 16356 ft 401 kts 211°
2026-05-06 02:19 -41.56674 174.63392 16869 ft 403 kts 211°
2026-05-06 02:20 -41.61690 174.59901 17881 ft 410 kts 211°
2026-05-06 02:20 -41.64232 174.58133 18399 ft 413 kts 211°
2026-05-06 02:20 -41.66785 174.56354 18842 ft 416 kts 212°
2026-05-06 02:21 -41.69359 174.54557 19301 ft 418 kts 210°
2026-05-06 02:21 -41.71948 174.52751 19797 ft 420 kts 211°
2026-05-06 02:21 -41.74537 174.50940 20300 ft 420 kts 211°
2026-05-06 02:21 -41.77103 174.49139 20809 ft 421 kts 211°
2026-05-06 02:22 -41.79676 174.47258 21280 ft 420 kts 214°
2026-05-06 02:22 -41.82099 174.45078 21720 ft 420 kts 217°
2026-05-06 02:22 -41.84519 174.42876 22187 ft 421 kts 216°
2026-05-06 02:22 -41.86942 174.40669 22635 ft 421 kts 216°
2026-05-06 02:23 -41.89375 174.38454 23066 ft 422 kts 216°
2026-05-06 02:23 -41.91810 174.36235 23454 ft 424 kts 217°
2026-05-06 02:23 -41.94255 174.34011 23835 ft 426 kts 217°
2026-05-06 02:23 -41.96716 174.31770 24189 ft 426 kts 216°
2026-05-06 02:24 -41.99168 174.29530 24559 ft 427 kts 217°
2026-05-06 02:24 -42.01634 174.27274 24811 ft 430 kts 216°
2026-05-06 02:24 -42.04084 174.25029 25073 ft 433 kts 216°
2026-05-06 02:24 -42.06584 174.22735 25398 ft 435 kts 216°
2026-05-06 02:25 -42.09091 174.20435 25712 ft 437 kts 216°
2026-05-06 02:25 -42.11611 174.18120 26053 ft 438 kts 216°
2026-05-06 02:25 -42.14132 174.15799 26458 ft 437 kts 216°
2026-05-06 02:25 -42.16635 174.13492 26965 ft 434 kts 216°
2026-05-06 02:26 -42.19121 174.11200 27477 ft 432 kts 216°
2026-05-06 02:26 -42.21593 174.08922 27988 ft 429 kts 216°
2026-05-06 02:26 -42.24051 174.06661 28505 ft 426 kts 216°
2026-05-06 02:26 -42.26499 174.04408 29030 ft 424 kts 217°
2026-05-06 02:27 -42.28928 174.02168 29533 ft 422 kts 217°
2026-05-06 02:27 -42.31343 173.99938 30052 ft 419 kts 217°
2026-05-06 02:27 -42.33748 173.97713 30532 ft 417 kts 217°
2026-05-06 02:27 -42.36104 173.95525 30975 ft 414 kts 217°
2026-05-06 02:28 -42.38470 173.93323 31431 ft 412 kts 217°
2026-05-06 02:28 -42.40821 173.91133 31885 ft 409 kts 217°
2026-05-06 02:28 -42.43169 173.88943 32156 ft 408 kts 218°
2026-05-06 02:29 -42.47088 173.85286 32217 ft 418 kts 218°
2026-05-06 02:29 -42.51906 173.80793 32214 ft 424 kts 218°
2026-05-06 02:30 -42.56766 173.76259 32212 ft 424 kts 218°
2026-05-06 02:30 -42.61633 173.71713 32215 ft 424 kts 218°
2026-05-06 02:31 -42.66492 173.67152 32215 ft 424 kts 218°
2026-05-06 02:31 -42.71347 173.62592 32211 ft 424 kts 218°
2026-05-06 02:32 -42.76206 173.58023 32209 ft 424 kts 218°
2026-05-06 02:32 -42.81058 173.53447 32208 ft 424 kts 218°
2026-05-06 02:33 -42.85912 173.48852 32212 ft 425 kts 219°
2026-05-06 02:33 -42.87522 173.47327 32209 ft 425 kts 219°
2026-05-06 02:34 -42.95604 173.39677 32205 ft 425 kts 219°
2026-05-06 02:34 -43.00467 173.35046 32198 ft 425 kts 219°
2026-05-06 02:35 -43.05320 173.30425 32208 ft 425 kts 219°
2026-05-06 02:35 -43.10104 173.25692 32199 ft 422 kts 225°
2026-05-06 02:36 -43.13872 173.19642 32193 ft 417 kts 236°
2026-05-06 02:36 -43.17326 173.13253 32195 ft 417 kts 237°
2026-05-06 02:37 -43.20780 173.06870 32198 ft 417 kts 237°
2026-05-06 02:37 -43.24210 173.00526 32204 ft 416 kts 237°
2026-05-06 02:38 -43.27650 172.94146 32205 ft 416 kts 237°
2026-05-06 02:38 -43.31080 172.87747 32187 ft 415 kts 237°
2026-05-06 02:39 -43.34504 172.81355 32180 ft 415 kts 237°
2026-05-06 02:39 -43.37920 172.74957 32176 ft 415 kts 237°
2026-05-06 02:40 -43.41337 172.68555 32178 ft 415 kts 237°
2026-05-06 02:40 -43.44753 172.62147 32168 ft 415 kts 237°
2026-05-06 02:41 -43.48158 172.55731 32162 ft 415 kts 237°
2026-05-06 02:41 -43.51396 172.49161 32173 ft 413 kts 243°
2026-05-06 02:42 -43.54263 172.42348 32175 ft 413 kts 243°
2026-05-06 02:42 -43.57152 172.35499 32190 ft 412 kts 243°
2026-05-06 02:43 -43.60013 172.28694 32202 ft 411 kts 243°
2026-05-06 02:43 -43.62882 172.21850 32193 ft 411 kts 244°
2026-05-06 02:44 -43.65742 172.15017 32185 ft 411 kts 244°
2026-05-06 02:44 -43.68599 172.08179 32183 ft 411 kts 244°
2026-05-06 02:45 -43.71448 172.01334 32200 ft 410 kts 244°
2026-05-06 02:45 -43.74290 171.94499 32193 ft 410 kts 244°
2026-05-06 02:46 -43.77104 171.87696 32190 ft 410 kts 244°
2026-05-06 02:46 -43.79941 171.80839 32188 ft 410 kts 244°
2026-05-06 02:47 -43.82769 171.73987 32169 ft 410 kts 245°
2026-05-06 02:47 -43.85623 171.67145 32164 ft 411 kts 244°
2026-05-06 02:48 -43.88545 171.60336 32163 ft 412 kts 244°
2026-05-06 02:48 -43.91426 171.53616 32168 ft 412 kts 245°
2026-05-06 02:49 -43.94374 171.46680 32158 ft 413 kts 245°
2026-05-06 02:49 -43.97281 171.39810 32157 ft 413 kts 245°
2026-05-06 02:50 -44.00196 171.32917 32156 ft 413 kts 245°
2026-05-06 02:50 -44.03105 171.26019 32165 ft 414 kts 245°
2026-05-06 02:51 -44.06012 171.19099 32146 ft 415 kts 245°
2026-05-06 02:51 -44.08909 171.12205 32155 ft 416 kts 245°
2026-05-06 02:52 -44.11822 171.05251 32156 ft 416 kts 245°
2026-05-06 02:52 -44.14730 170.98286 32157 ft 416 kts 245°
2026-05-06 02:53 -44.17631 170.91320 32156 ft 416 kts 245°
2026-05-06 02:53 -44.20534 170.84323 32152 ft 417 kts 246°
2026-05-06 02:54 -44.23440 170.77313 32150 ft 418 kts 246°
2026-05-06 02:54 -44.26348 170.70293 32165 ft 418 kts 246°
2026-05-06 02:55 -44.29254 170.63252 32168 ft 418 kts 246°
2026-05-06 02:55 -44.32145 170.56211 32180 ft 418 kts 246°
2026-05-06 02:56 -44.35033 170.49161 32173 ft 418 kts 246°
2026-05-06 02:56 -44.37915 170.42129 32172 ft 419 kts 246°
2026-05-06 02:57 -44.40809 170.35037 32170 ft 419 kts 246°
2026-05-06 02:57 -44.43694 170.27938 32179 ft 419 kts 246°
2026-05-06 02:58 -44.46581 170.20841 32181 ft 419 kts 246°
2026-05-06 02:58 -44.49459 170.13734 32170 ft 420 kts 246°
2026-05-06 02:59 -44.52325 170.06632 32167 ft 421 kts 246°
2026-05-06 02:59 -44.55215 169.99474 32166 ft 422 kts 246°
2026-05-06 03:00 -44.58100 169.92309 32181 ft 422 kts 247°
2026-05-06 03:00 -44.60971 169.85128 32182 ft 421 kts 247°
2026-05-06 03:01 -44.63827 169.78000 32167 ft 421 kts 247°
2026-05-06 03:01 -44.66700 169.70815 32154 ft 422 kts 247°
2026-05-06 03:02 -44.69571 169.63595 32136 ft 423 kts 247°
2026-05-06 03:02 -44.72439 169.56350 32153 ft 424 kts 248°
2026-05-06 03:02 -44.73872 169.52724 32022 ft 425 kts 248°
2026-05-06 03:03 -44.75308 169.49087 31584 ft 425 kts 247°
2026-05-06 03:03 -44.76748 169.45447 30474 ft 424 kts 246°
2026-05-06 03:03 -44.78180 169.41832 29260 ft 422 kts 246°
2026-05-06 03:03 -44.79602 169.38234 28051 ft 419 kts 246°
2026-05-06 03:04 -44.81007 169.34659 26900 ft 415 kts 247°
2026-05-06 03:04 -44.82097 169.31013 25831 ft 405 kts 257°
2026-05-06 03:04 -44.82950 169.27210 24963 ft 399 kts 257°
2026-05-06 03:04 -44.83772 169.23552 24463 ft 395 kts 257°
2026-05-06 03:05 -44.84597 169.19871 23972 ft 393 kts 256°
2026-05-06 03:05 -44.85418 169.16202 23439 ft 391 kts 256°
2026-05-06 03:05 -44.86232 169.12567 22954 ft 387 kts 256°
2026-05-06 03:05 -44.87038 169.08973 22485 ft 383 kts 257°
2026-05-06 03:06 -44.87834 169.05414 22012 ft 380 kts 257°
2026-05-06 03:06 -44.88623 169.01870 21546 ft 377 kts 257°
2026-05-06 03:06 -44.89405 168.98362 21071 ft 373 kts 257°
2026-05-06 03:06 -44.90179 168.94886 20596 ft 370 kts 256°
2026-05-06 03:07 -44.90790 168.91391 20109 ft 364 kts 266°
2026-05-06 03:07 -44.90899 168.87864 19630 ft 358 kts 276°
2026-05-06 03:07 -44.90775 168.84365 19137 ft 356 kts 276°
2026-05-06 03:07 -44.90656 168.80929 18656 ft 354 kts 275°
2026-05-06 03:08 -44.90540 168.77462 18120 ft 353 kts 275°
2026-05-06 03:08 -44.90421 168.73975 17615 ft 349 kts 275°
2026-05-06 03:08 -44.90304 168.70575 17097 ft 347 kts 276°
2026-05-06 03:08 -44.90287 168.67185 16584 ft 346 kts 268°
2026-05-06 03:09 -44.90779 168.63896 16071 ft 349 kts 255°
2026-05-06 03:09 -44.91781 168.60768 15634 ft 348 kts 248°
2026-05-06 03:09 -44.92849 168.57797 15499 ft 329 kts 248°
2026-05-06 03:09 -44.93849 168.55018 15071 ft 311 kts 250°
2026-05-06 03:10 -44.94830 168.52240 13918 ft 321 kts 249°
2026-05-06 03:10 -44.95804 168.49453 13457 ft 308 kts 250°
2026-05-06 03:10 -44.96738 168.46800 13004 ft 296 kts 251°
2026-05-06 03:10 -44.97639 168.44257 12731 ft 282 kts 251°
2026-05-06 03:11 -44.98499 168.41832 12351 ft 273 kts 252°
2026-05-06 03:11 -44.99342 168.39436 11842 ft 270 kts 252°
2026-05-06 03:11 -45.00172 168.37062 11426 ft 268 kts 252°
2026-05-06 03:11 -45.00989 168.34727 11040 ft 267 kts 253°
2026-05-06 03:12 -45.01812 168.32370 10680 ft 269 kts 253°
2026-05-06 03:12 -45.02722 168.30052 10435 ft 270 kts 244°
2026-05-06 03:12 -45.03967 168.28025 10338 ft 277 kts 231°
2026-05-06 03:12 -45.05543 168.26427 10209 ft 281 kts 216°
2026-05-06 03:13 -45.07366 168.25383 10097 ft 285 kts 202°
2026-05-06 03:13 -45.09333 168.24976 9949 ft 287 kts 188°
2026-05-06 03:13 -45.11350 168.25245 9493 ft 300 kts 171°
2026-05-06 03:13 -45.13321 168.26294 9045 ft 303 kts 150°
2026-05-06 03:14 -45.14925 168.28140 8644 ft 294 kts 128°
2026-05-06 03:14 -45.15995 168.30546 8240 ft 286 kts 107°
2026-05-06 03:14 -45.16458 168.33193 7846 ft 269 kts 87°
2026-05-06 03:14 -45.16335 168.35778 7467 ft 259 kts 70°
2026-05-06 03:15 -45.15724 168.38117 7081 ft 247 kts 55°
2026-05-06 03:15 -45.14932 168.40237 6735 ft 239 kts 54°
2026-05-06 03:15 -45.14177 168.42266 6393 ft 225 kts 58°
2026-05-06 03:15 -45.13471 168.44160 6077 ft 216 kts 58°
2026-05-06 03:16 -45.12787 168.45990 5789 ft 204 kts 58°
2026-05-06 03:16 -45.12138 168.47728 5478 ft 194 kts 58°
2026-05-06 03:16 -45.11513 168.49397 5030 ft 192 kts 57°
2026-05-06 03:16 -45.10886 168.51056 4508 ft 189 kts 58°
2026-05-06 03:17 -45.10272 168.52683 3998 ft 186 kts 59°
2026-05-06 03:17 -45.09680 168.54260 3631 ft 175 kts 60°
2026-05-06 03:17 -45.09312 168.55242 3520 ft 166 kts 59°
2026-05-06 03:17 -45.08784 168.56648 3419 ft 157 kts 58°
2026-05-06 03:18 -45.08134 168.58383 3303 ft 146 kts 58°
2026-05-06 03:18 -45.07660 168.59642 3227 ft 145 kts 59°
2026-05-06 03:18 -45.07190 168.60887 3164 ft 142 kts 58°
2026-05-06 03:18 -45.06720 168.62136 3096 ft 145 kts 59°
2026-05-06 03:19 -45.06400 168.62982 3045 ft 145 kts 59°
2026-05-06 03:19 -45.05937 168.64209 2818 ft 142 kts 59°
2026-05-06 03:19 -45.05475 168.65435 2611 ft 141 kts 57°
2026-05-06 03:19 -45.05012 168.66660 2400 ft 143 kts 59°
2026-05-06 03:20 -45.03741 168.68770 1996 ft 141 kts 41°
2026-05-06 03:20 -45.03011 168.69701 1730 ft 141 kts 46°
2026-05-06 03:20 -45.02503 168.70851 1648 ft 140 kts 66°
2026-05-06 03:21 -45.02233 168.72202 1403 ft 144 kts 68°
2026-05-06 03:21 -45.02004 168.73552 1220 ft 137 kts 73°
2026-05-06 03:21 -45.01817 168.74723 1166 ft 91 kts 77°
2026-05-06 03:21 -45.01742 168.75224 1165 ft 31 kts 78°
2026-05-06 03:22 -45.01693 168.75511 1170 ft 29 kts 75°
2026-05-06 03:22 -45.01657 168.75738 1171 ft 17 kts 67°
2026-05-06 03:22 -45.01653 168.75795 1166 ft 4 kts 248°
2026-05-06 03:22 -45.01663 168.75735 1171 ft 10 kts 257°
2026-05-06 03:23 -45.01685 168.75607 1170 ft 17 kts 256°
2026-05-06 03:23 -45.01712 168.75409 1168 ft 24 kts 258°
2026-05-06 03:23 -45.01751 168.75163 1164 ft 26 kts 257°
2026-05-06 03:23 -45.01793 168.74900 1166 ft 29 kts 258°
2026-05-06 03:24 -45.01835 168.74619 1167 ft 30 kts 257°
2026-05-06 03:24 -45.01880 168.74328 1169 ft 31 kts 258°
2026-05-06 03:24 -45.01912 168.74119 1167 ft 12 kts 258°
2026-05-06 03:24 -45.01949 168.74062 1165 ft 7 kts 172°
2026-05-06 03:25 -45.02010 168.74072 1164 ft 11 kts 185°
2026-05-06 03:25 -45.02035 168.74062 1163 ft 0 kts 197°
2026-05-06 03:25 -45.02038 168.74061 1164 ft 2 kts 197°
2026-05-06 03:26 -45.02061 168.74050 1163 ft 5 kts 198°
2026-05-06 03:26 -45.02084 168.74038 1164 ft 0 kts 203°
2026-05-06 03:26 -45.02095 168.74031 1164 ft 3 kts 204°
2026-05-06 03:26 -45.02107 168.74023 1163 ft 2 kts 204°
2026-05-06 03:27 -45.02126 168.74011 1164 ft 4 kts 206°
2026-05-06 03:27 -45.02127 168.74010 1164 ft 0 kts 206°